Regional Weather Roundup
Issued by NWS

Home | Current Version | Previous Version | Graphics & Text | Print | Product List | Glossary On
Versions: 1 2 3 4 5 6 7 8 9 10 11 12 13 14 15 16 17 18 19 20 21 22 23 24 25 26 27 28 29 30 31 32 33 34 35 36 37 38 39 40 41 42 43 44 45 46 47 48 49 50
494
ASUS44 KLIX 270805
RWRLA
LOUISIANA WEATHER ROUNDUP
NATIONAL WEATHER SERVICE NEW ORLEANS LA
200 AM CST THU NOV 27 2014

NOTE: "FAIR" INDICATES FEW OR NO CLOUDS BELOW 12,000 FEET WITH NO
      SIGNIFICANT WEATHER AND/OR OBSTRUCTIONS TO VISIBILITY.
      SKY/WX - SKY CONDITION AND SIGNIFICANT WEATHER.
      TMP - AIR TEMPERATURE.    DP   - DEWPOINT TEMPERATURE.
      RH  - RELATIVE HUMIDITY.  PRES - PRESSURE.
      HX  - HEAT INDEX.         WCI  - WIND CHILL INDEX.

*  THESE STATIONS ARE NOT NWS OR FAA STATIONS AND ARE NOT UNDER
   NWS QUALITY CONTROL.

LAZ040-048-061>063-065-066-069-270900-
SOUTHEAST LOUISIANA

CITY           SKY/WX    TMP DP  RH WIND       PRES   REMARKS
N.O. AUDUBON     N/A     55  50  82 MISG        N/A
N.O. INTL ARPT CLEAR     55  47  74 NW10      30.30R
N.O. LAKEFRONT CLEAR     57  51  80 W15       30.30R
N.O. DOWNTOWN* FAIR      55  45  67 NW5       30.31R
SLIDELL        CLEAR     53  46  77 CALM      30.29R
BATON ROUGE    CLEAR     46  42  86 W5        30.31R
BOOTHVILLE     CLEAR     59  52  77 W12       30.28F
BELLE CHASSE   CLEAR     50  46  86 CALM      30.30R
BOGALUSA*        N/A     47  41  77 CALM      30.30R
NEW ROADS*     FAIR      48  42  77 W5        30.32R
GONZALES*      FAIR      52  49  89 NW5       30.32R
HAMMOND*       CLEAR     48  41  76 CALM      30.32R
HOUMA*         CLEAR     53  50  92 W5        30.30R
PORT FOURCHON* SUNNY     59  55  88 W12       30.33S

$$

LAZ041-044-053-054-270900-
SOUTHWEST LOUISIANA

CITY           SKY/WX    TMP DP  RH WIND       PRES   REMARKS
LAKE CHARLES   CLEAR     46  42  86 CALM      30.35R
LAFAYETTE      CLEAR     50  44  80 NW5       30.34R
PATTERSON      CLEAR     55  46  71 NW9       30.34R
SALT POINT       N/A     62  52  69 W6        30.31R
NEW IBERIA     CLEAR     51  45  79 W6        30.34R
CHENAULT AIRPK CLEAR     50  42  74 CALM      30.36R

$$

LAZ027-028-270900-
CENTRAL LOUISIANA

CITY           SKY/WX    TMP DP  RH WIND       PRES   REMARKS
FORT POLK      CLEAR     48  36  64 NW6       30.34R
ALEXANDRIA INT CLEAR     45  37  73 NW7       30.32R
ALEXANDRIA     CLEAR     43  38  82 NW3       30.33R

$$

LAZ001-002-270900-
NORTHWEST LOUISIANA

CITY           SKY/WX    TMP DP  RH WIND       PRES   REMARKS
SHREVEPORT     CLEAR     47  33  58 NW10      30.37R
BARKSDALE AFB  CLEAR     44  32  63 N8        30.37R
DTN SHREVEPORT CLEAR     47  30  51 NW8       30.38R

$$

LAZ014-016-270900-
NORTHEAST LOUISIANA

CITY           SKY/WX    TMP DP  RH WIND       PRES   REMARKS
MONROE         CLEAR     45  33  63 NW7       30.34R
TALLULAH       CLEAR     35  32  88 NW3       30.31R

$$




USA.gov is the U.S. government's official web portal to all federal, state and local government web resources and services.